Location: ??????????
(54.8537°N, 38.8755°E)
Time: 02:07:05
(UTC+00:00)

Vanguard 2 Rocket - Pass Details

Date: 17 September 2024
Orbit: 553 x 3298 km, 32.9° (Epoch: 10 October)

Event Time Altitude Azimuth Distance (km) Brightness Sun altitude
Rises 21:29:49 0° 198° (SSW) 4,226 - -33.3°
Reaches altitude 10° 21:33:55 10° 177° (S) 3,729 - -33.3°
Maximum altitude 21:39:14 16° 144° (SE) 3,863 - -33.2°
Exits shadow 21:43:11 13° 125° (SE) 4,432 10.1 -33.1°
Drops below altitude 10° 21:45:59 10° 114° (ESE) 4,975 10.5 -33.1°
Sets 21:53:07 0° 97° (E) 6,557 11.3 -32.9°
